EW7199 Weather Reports


time (UTC)temp
F
wind
direction
speed
knots
gust
knots
rain 1hr
in
rain 24hr
in
rain mn
in
humidity
%
barometer
mb
20260906052413 80 136 0.0 0.0 0.00 0.00 0.00 58 1017.4
20260906051912 79 136 0.0 0.0 0.00 0.00 0.00 54 1017.4
20260906051412 79 136 0.0 0.0 0.00 0.00 0.00 54 1017.3
20260906050912 79 136 0.0 0.0 0.00 0.00 0.00 54 1017.4
20260906050412 79 136 0.0 0.0 0.00 0.00 0.00 53 1017.4
20260906045913 79 137 0.0 0.0 0.00 0.00 0.00 55 1017.3
20260906045413 79 137 0.0 0.0 0.00 0.00 0.00 58 1017.3
20260906044912 78 137 0.0 0.0 0.00 0.00 0.00 59 1017.2
20260906044413 78 138 0.0 0.0 0.00 0.00 0.00 56 1017.2
20260906043912 78 137 0.0 0.0 0.00 0.00 0.00 56 1017.2
20260906043412 78 137 0.0 0.0 0.00 0.00 0.00 56 1017.2
20260906042912 78 138 0.0 0.0 0.00 0.00 0.00 56 1017.1
20260906041912 78 139 0.0 0.0 0.00 0.00 0.00 57 1017.1
20260906041412 78 139 0.0 0.0 0.00 0.00 0.00 58 1017.0
20260906040913 78 139 0.0 0.0 0.00 0.00 0.00 58 1017.0
20260906040412 78 139 0.0 0.0 0.00 0.00 0.00 58 1017.0
20260906035914 78 140 0.0 0.0 0.00 0.00 0.00 61 1017.0
20260906035412 78 140 0.0 0.0 0.00 0.00 0.00 59 1016.8
20260906034914 78 140 0.0 0.0 0.00 0.00 0.00 62 1016.7
20260906034416 78 140 0.0 0.0 0.00 0.00 0.00 58 1016.7
20260906033912 78 142 0.0 0.0 0.00 0.00 0.00 61 1016.8
20260906033412 78 142 0.0 0.0 0.00 0.00 0.00 62 1016.8
20260906032911 77 142 0.0 0.0 0.00 0.00 0.00 62 1016.7
20260906032412 77 142 0.0 0.0 0.00 0.00 0.00 61 1016.7
20260906031912 77 142 0.0 0.0 0.00 0.00 0.00 60 1016.7
20260906031412 77 142 0.0 0.0 0.00 0.00 0.00 59 1016.7
20260906030912 77 142 0.0 0.0 0.00 0.00 0.00 60 1016.7
20260906030412 77 143 0.0 0.0 0.00 0.00 0.00 58 1016.7
20260906025912 78 146 0.0 0.0 0.00 0.00 0.00 58 1016.7
20260906025413 78 147 0.0 0.0 0.00 0.00 0.00 58 1016.7
20260906024912 78 148 0.0 0.0 0.00 0.00 0.00 55 1016.7
20260906024412 78 259 0.0 0.0 0.00 0.00 0.00 55 1016.7
20260906023913 79 263 0.0 0.0 0.00 0.00 0.00 56 1016.7
20260906022912 80 263 0.0 0.0 0.00 0.00 0.00 65 1016.7
20260906022412 80 263 0.0 0.0 0.00 0.00 0.00 64 1016.8
20260906021413 80 271 0.0 0.0 0.00 0.00 0.00 63 1016.7
20260906020912 80 271 0.0 0.0 0.00 0.00 0.00 63 1016.7
20260906020412 80 272 0.0 0.0 0.00 0.00 0.00 62 1016.7
20260906015412 80 272 0.0 0.0 0.00 0.00 0.00 62 1016.7
20260906014915 80 272 0.0 0.0 0.00 0.00 0.00 62 1016.7
20260906014413 81 273 0.0 0.0 0.00 0.00 0.00 62 1016.8
20260906013912 81 274 0.0 0.0 0.00 0.00 0.00 61 1016.8
20260906013413 81 275 0.0 0.0 0.00 0.00 0.00 60 1016.8
20260906012912 81 275 0.0 0.0 0.00 0.00 0.00 60 1016.8
20260906011912 81 275 0.0 0.0 0.00 0.00 0.00 59 1016.8
20260906011411 81 291 0.0 0.0 0.00 0.00 0.00 57 1016.8
20260906010912 81 291 0.0 0.0 0.00 0.00 0.00 55 1016.8
20260906010413 82 291 0.0 0.9 0.00 0.00 0.00 54 1016.8
20260906005912 82 286 1.7 2.6 0.00 0.00 0.00 54 1016.7
20260906005412 81 279 1.7 2.6 0.00 0.00 0.00 53 1016.8
20260906004915 81 80 0.0 0.0 0.00 0.00 0.00 53 1016.8
20260906004414 80 80 0.0 0.0 0.00 0.00 0.00 51 1016.7
20260906003913 80 80 0.0 0.0 0.00 0.00 0.00 52 1016.8
20260906003412 80 80 0.0 0.0 0.00 0.00 0.00 51 1016.8
20260906001912 80 80 1.7 2.6 0.00 0.00 0.00 51 1016.8
20260906001412 80 78 0.0 0.0 0.00 0.00 0.00 51 1016.8
20260906000912 80 78 0.0 0.0 0.00 0.00 0.00 52 1016.8
20260906000412 80 78 0.0 0.0 0.00 0.00 0.00 51 1016.8
20260905235912 80 80 0.0 0.0 0.00 0.00 0.00 51 1016.8
20260905235412 80 80 0.0 0.0 0.00 0.00 0.00 52 1016.8
20260905234918 79 80 0.0 0.0 0.00 0.00 0.00 52 1016.8
20260905234414 79 80 0.0 1.7 0.00 0.00 0.00 54 1016.8
20260905233913 79 81 1.7 2.6 0.00 0.00 0.00 53 1016.9
20260905233412 80 86 1.7 1.7 0.00 0.00 0.00 53 1016.9
20260905232912 81 80 0.0 0.0 0.00 0.00 0.00 51 1016.9
20260905232412 82 288 0.0 0.0 0.00 0.00 0.00 51 1016.9
20260905231912 83 288 0.0 0.0 0.00 0.00 0.00 51 1017.0
20260905231412 83 288 0.0 0.0 0.00 0.00 0.00 51 1017.0
20260905230912 83 288 0.0 0.0 0.00 0.00 0.00 51 1017.0
20260905230412 83 288 0.0 0.0 0.00 0.00 0.00 51 1017.1
20260905225912 83 288 0.0 0.0 0.00 0.00 0.00 51 1017.1
20260905224913 83 284 0.0 0.0 0.00 0.00 0.00 50 1017.1
20260905224412 83 284 0.0 0.0 0.00 0.00 0.00 50 1017.2
20260905223912 83 284 0.0 0.0 0.00 0.00 0.00 50 1017.2
20260905222912 83 319 0.0 0.0 0.00 0.00 0.00 51 1017.2
20260905222411 83 320 0.0 0.0 0.00 0.00 0.00 52 1017.1
20260905221913 83 340 0.0 0.0 0.00 0.00 0.00 52 1017.1
20260905221413 83 85 0.0 1.7 0.00 0.00 0.00 53 1017.0
20260905220913 83 86 0.0 0.9 0.00 0.00 0.00 54 1017.0
20260905220412 83 86 0.0 0.0 0.00 0.00 0.00 54 1017.0
20260905215914 82 86 0.0 0.9 0.00 0.00 0.00 55 1017.0
20260905214416 82 88 0.9 1.7 0.00 0.00 0.00 57 1017.0
20260905213912 82 92 0.9 2.6 0.00 0.00 0.00 56 1016.9
20260905213411 82 71 0.0 1.7 0.00 0.00 0.00 57 1017.0
20260905212913 82 50 0.0 0.0 0.00 0.00 0.00 57 1017.0
20260905212412 83 50 0.0 0.0 0.00 0.00 0.00 57 1017.0
20260905211913 83 50 0.0 0.0 0.00 0.00 0.00 56 1016.9
20260905210913 83 50 0.0 0.0 0.00 0.00 0.00 57 1017.0
20260905210412 84 51 0.0 1.7 0.00 0.00 0.00 56 1016.9
20260905205912 84 65 0.9 1.7 0.00 0.00 0.00 57 1017.0
20260905205414 84 57 0.0 1.7 0.00 0.00 0.00 56 1017.1
20260905204417 84 57 0.9 1.7 0.00 0.00 0.00 55 1017.1
20260905203912 84 207 0.0 0.9 0.00 0.00 0.00 56 1017.1
20260905203412 84 210 0.0 0.9 0.00 0.00 0.00 58 1017.1
20260905201913 85 277 0.0 0.0 0.00 0.00 0.00 56 1017.1
20260905201412 85 277 0.0 0.0 0.00 0.00 0.00 55 1017.1
20260905200912 86 277 0.0 1.7 0.00 0.00 0.00 55 1017.1
20260905200412 86 269 0.0 1.7 0.00 0.00 0.00 56 1017.2
20260905195414 85 292 0.9 1.7 0.00 0.00 0.00 57 1017.3
20260905194913 85 305 0.9 1.7 0.00 0.00 0.00 58 1017.4
20260905193912 86 295 0.9 1.7 0.00 0.00 0.00 58 1017.4
20260905193411 86 260 0.9 1.7 0.00 0.00 0.00 58 1017.4
20260905192912 86 263 0.9 2.6 0.00 0.00 0.00 58 1017.3
20260905191913 86 259 0.9 1.7 0.00 0.00 0.00 57 1017.3
20260905191412 86 263 1.7 2.6 0.00 0.00 0.00 57 1017.2
20260905190912 86 256 1.7 2.6 0.00 0.00 0.00 58 1017.3
20260905185914 86 253 0.9 1.7 0.00 0.00 0.00 57 1017.1
20260905185414 86 252 1.7 2.6 0.00 0.00 0.00 57 1017.1
20260905184916 86 252 1.7 2.6 0.00 0.00 0.00 56 1017.0
20260905183913 86 223 0.0 0.0 0.00 0.00 0.00 55 1016.8
20260905183413 86 223 0.0 0.0 0.00 0.00 0.00 55 1016.8
20260905182912 86 223 0.0 0.0 0.00 0.00 0.00 55 1016.7
20260905182412 86 223 0.0 0.0 0.00 0.00 0.00 55 1016.7
20260905181912 86 223 0.0 0.0 0.00 0.00 0.00 56 1016.6
20260905180913 86 223 0.0 0.0 0.00 0.00 0.00 56 1016.4
20260905180412 86 223 0.9 1.7 0.00 0.00 0.00 55 1016.4
20260905175912 86 223 0.9 1.7 0.00 0.00 0.00 55 1016.4
20260905174414 86 223 1.7 1.7 0.00 0.00 0.00 55 1016.3
20260905173913 87 223 0.9 1.7 0.00 0.00 0.00 54 1016.2
20260905173413 87 232 0.9 2.6 0.00 0.00 0.00 53 1016.3
20260905172911 87 230 0.9 2.6 0.00 0.00 0.00 52 1016.2
20260905172413 87 239 0.9 2.6 0.00 0.00 0.00 50 1016.1
20260905171912 87 216 1.7 2.6 0.00 0.00 0.00 48 1016.1
20260905171412 88 229 1.7 2.6 0.00 0.00 0.00 49 1016.2
20260905170912 88 254 1.7 2.6 0.00 0.00 0.00 48 1016.1
20260905170412 88 254 0.9 2.6 0.00 0.00 0.00 46 1016.1
20260905165912 89 257 1.7 2.6 0.00 0.00 0.00 46 1016.1
20260905165412 89 265 0.9 2.6 0.00 0.00 0.00 45 1016.0
20260905164916 90 229 0.9 1.7 0.00 0.00 0.00 41 1016.1
20260905164413 90 228 1.7 2.6 0.00 0.00 0.00 38 1016.0
20260905163911 91 239 0.9 2.6 0.00 0.00 0.00 38 1016.0
20260905163412 91 249 0.0 1.7 0.00 0.00 0.00 38 1016.0
20260905162912 91 222 0.9 1.7 0.00 0.00 0.00 37 1016.0
20260905162412 91 104 0.9 2.6 0.00 0.00 0.00 39 1016.0
20260905161912 91 158 0.9 2.6 0.00 0.00 0.00 39 1015.9
20260905161412 91 139 1.7 2.6 0.00 0.00 0.00 39 1015.9
20260905160912 91 127 0.0 1.7 0.00 0.00 0.00 39 1015.9
20260905160411 91 95 0.9 2.6 0.00 0.00 0.00 40 1015.8
20260905155913 91 226 0.9 2.6 0.00 0.00 0.00 40 1015.9
20260905155411 91 271 0.9 2.6 0.00 0.00 0.00 40 1015.9
20260905154915 92 147 0.9 2.6 0.00 0.00 0.00 38 1015.9
20260905153912 93 191 0.9 2.6 0.00 0.00 0.00 32 1015.9
20260905153412 93 227 0.9 2.6 0.00 0.00 0.00 32 1016.0
20260905152912 93 189 1.7 2.6 0.00 0.00 0.00 33 1015.9
20260905152413 94 207 0.9 2.6 0.00 0.00 0.00 34 1015.8
20260905151912 94 185 0.9 2.6 0.00 0.00 0.00 34 1015.8
20260905151411 93 229 0.9 1.7 0.00 0.00 0.00 35 1015.8
20260905150912 93 150 0.9 2.6 0.00 0.00 0.00 33 1015.8
20260905150413 94 174 0.9 2.6 0.00 0.00 0.00 32 1015.8
20260905145411 94 144 0.9 2.6 0.00 0.00 0.00 31 1015.9
20260905144912 94 257 0.9 2.6 0.00 0.00 0.00 31 1015.9
20260905144413 94 216 0.9 2.6 0.00 0.00 0.00 32 1015.9
20260905143912 94 268 0.9 2.6 0.00 0.00 0.00 34 1015.9
20260905142912 94 179 0.9 2.6 0.00 0.00 0.00 32 1016.1
20260905141911 93 223 0.9 2.6 0.00 0.00 0.00 32 1016.1
20260905141412 93 228 0.9 2.6 0.00 0.00 0.00 33 1016.2
20260905140911 92 176 0.9 2.6 0.00 0.00 0.00 34 1016.3
20260905140412 92 203 1.7 2.6 0.00 0.00 0.00 36 1016.3
20260905135913 92 234 1.7 2.6 0.00 0.00 0.00 37 1016.3
20260905135411 91 232 1.7 2.6 0.00 0.00 0.00 38 1016.4
20260905134913 91 239 0.9 2.6 0.00 0.00 0.00 38 1016.4
20260905134417 90 226 1.7 2.6 0.00 0.00 0.00 39 1016.4
20260905133912 90 223 2.6 2.6 0.00 0.00 0.00 41 1016.5
20260905133411 91 227 1.7 4.3 0.00 0.00 0.00 42 1016.6
20260905132912 90 222 1.7 2.6 0.00 0.00 0.00 42 1016.6
20260905132412 90 212 1.7 2.6 0.00 0.00 0.00 42 1016.7
20260905131911 90 229 1.7 2.6 0.00 0.00 0.00 42 1016.7
20260905131412 90 226 2.6 2.6 0.00 0.00 0.00 41 1016.7
20260905130411 89 229 1.7 2.6 0.00 0.00 0.00 44 1016.8
20260905125911 89 227 2.6 2.6 0.00 0.00 0.00 43 1016.9
20260905125411 89 232 2.6 2.6 0.00 0.00 0.00 44 1016.9
20260905124913 89 222 2.6 2.6 0.00 0.00 0.00 43 1017.0
20260905124414 89 231 2.6 2.6 0.00 0.00 0.00 45 1017.0
20260905123912 89 230 2.6 2.6 0.00 0.00 0.00 50 1017.1
20260905123413 89 226 1.7 2.6 0.00 0.00 0.00 48 1017.2
20260905122911 90 221 2.6 2.6 0.00 0.00 0.00 46 1017.2
20260905122412 90 250 1.7 2.6 0.00 0.00 0.00 44 1017.2
20260905121912 89 244 2.6 2.6 0.00 0.00 0.00 42 1017.1
20260905121412 89 203 2.6 2.6 0.00 0.00 0.00 42 1017.1
20260905120912 89 220 2.6 2.6 0.00 0.00 0.00 40 1017.2
20260905115912 89 221 1.7 2.6 0.00 0.00 0.00 40 1017.3
20260905115411 89 235 2.6 2.6 0.00 0.00 0.00 37 1017.3
20260905114916 89 231 2.6 4.3 0.00 0.00 0.00 34 1017.3
20260905114416 89 237 2.6 2.6 0.00 0.00 0.00 36 1017.3
20260905113911 89 232 2.6 2.6 0.00 0.00 0.00 30 1017.4
20260905113412 90 236 2.6 2.6 0.00 0.00 0.00 28 1017.4
20260905112912 89 236 1.7 2.6 0.00 0.00 0.00 29 1017.5
20260905112412 89 233 1.7 2.6 0.00 0.00 0.00 32 1017.5
20260905111912 88 249 1.7 2.6 0.00 0.00 0.00 31 1017.5
20260905111411 88 244 2.6 2.6 0.00 0.00 0.00 34 1017.5
20260905110412 88 233 2.6 2.6 0.00 0.00 0.00 32 1017.6
20260905105912 87 247 2.6 2.6 0.00 0.00 0.00 33 1017.6
20260905105412 87 234 1.7 2.6 0.00 0.00 0.00 37 1017.6
20260905104911 87 235 2.6 2.6 0.00 0.00 0.00 36 1017.7
20260905103911 87 234 1.7 2.6 0.00 0.00 0.00 35 1017.7
20260905103412 87 239 2.6 2.6 0.00 0.00 0.00 40 1017.8
20260905102412 87 248 1.7 2.6 0.00 0.00 0.00 41 1017.8
20260905101411 86 249 1.7 2.6 0.00 0.00 0.00 48 1017.9
20260905100913 86 242 1.7 2.6 0.00 0.00 0.00 43 1017.9
20260905100412 86 235 1.7 2.6 0.00 0.00 0.00 47 1017.9
20260905095412 86 236 1.7 2.6 0.00 0.00 0.00 44 1017.9
20260905094912 87 234 1.7 2.6 0.00 0.00 0.00 39 1018.0
20260905094411 86 241 1.7 2.6 0.00 0.00 0.00 39 1018.0
20260905093412 86 235 2.6 2.6 0.00 0.00 0.00 36 1018.1
20260905092912 85 241 1.7 2.6 0.00 0.00 0.00 42 1018.1
20260905092411 85 245 1.7 2.6 0.00 0.00 0.00 44 1018.1
20260905091411 85 249 1.7 2.6 0.00 0.00 0.00 41 1018.2
20260905090913 85 248 1.7 2.6 0.00 0.00 0.00 43 1018.2
20260905085913 83 243 1.7 2.6 0.00 0.00 0.00 43 1018.2
20260905085411 83 235 1.7 2.6 0.00 0.00 0.00 48 1018.2
20260905084911 83 239 1.7 2.6 0.00 0.00 0.00 51 1018.2
20260905084412 82 214 1.7 2.6 0.00 0.00 0.00 54 1018.3
20260905083911 82 259 0.9 2.6 0.00 0.00 0.00 56 1018.3
20260905083411 82 281 1.7 2.6 0.00 0.00 0.00 56 1018.3
20260905082912 82 234 1.7 2.6 0.00 0.00 0.00 57 1018.3
20260905082419 82 218 1.7 2.6 0.00 0.00 0.00 56 1018.3
20260905081911 82 269 1.7 2.6 0.00 0.00 0.00 56 1018.3
20260905081412 82 242 1.7 2.6 0.00 0.00 0.00 55 1018.2
20260905080912 81 249 1.7 2.6 0.00 0.00 0.00 56 1018.2
20260905080413 81 244 1.7 2.6 0.00 0.00 0.00 58 1018.1
20260905075912 81 261 1.7 2.6 0.00 0.00 0.00 56 1018.1
20260905075412 81 253 1.7 2.6 0.00 0.00 0.00 58 1018.0
20260905074912 81 244 1.7 2.6 0.00 0.00 0.00 56 1017.9
20260905074413 82 222 1.7 2.6 0.00 0.00 0.00 54 1017.9
20260905073913 82 222 1.7 2.6 0.00 0.00 0.00 51 1017.8
20260905072912 83 235 1.7 2.6 0.00 0.00 0.00 50 1017.7
20260905072411 82 227 0.9 2.6 0.00 0.00 0.00 50 1017.7
20260905071912 82 217 0.9 2.6 0.00 0.00 0.00 50 1017.6
20260905071411 82 216 0.9 2.6 0.00 0.00 0.00 51 1017.6
20260905070913 82 224 0.9 2.6 0.00 0.00 0.00 52 1017.6
20260905070411 82 224 0.0 0.0 0.00 0.00 0.00 51 1017.6
20260905065411 83 224 0.0 0.0 0.00 0.00 0.00 51 1017.5
20260905064911 83 224 0.0 0.0 0.00 0.00 0.00 50 1017.5
20260905064412 83 224 0.0 0.0 0.00 0.00 0.00 51 1017.5
20260905063411 82 224 0.0 0.0 0.00 0.00 0.00 53 1017.5
20260905062911 81 224 0.0 0.0 0.00 0.00 0.00 54 1017.5
20260905062411 80 224 0.0 0.0 0.00 0.00 0.00 56 1017.6
20260905061912 80 224 0.0 0.0 0.00 0.00 0.00 57 1017.6
20260905061411 79 224 0.0 0.0 0.00 0.00 0.00 57 1017.7
20260905060911 79 224 0.0 0.0 0.00 0.00 0.00 57 1017.7
20260905060412 79 224 0.0 0.0 0.00 0.00 0.00 57 1017.7
20260905055912 79 224 0.0 1.7 0.00 0.00 0.00 56 1017.7
20260905055412 79 224 0.9 1.7 0.00 0.00 0.00 56 1017.7
20260905054911 79 224 0.9 2.6 0.00 0.00 0.00 55 1017.7
20260905054412 79 224 0.9 1.7 0.00 0.00 0.00 52 1017.7
20260905053912 79 224 0.9 1.7 0.00 0.00 0.00 51 1017.7
20260905053413 80 224 0.9 2.6 0.00 0.00 0.00 50 1017.6
20260905052912 80 224 0.0 1.7 0.00 0.00 0.00 53 1017.6